Back to catalog

STARLINK-34367

AliveCommunicationsVLEO
NORAD 64452·PAYLOAD·🇺🇸 United States

Launched Jun 18, 2025 from Cape Canaveral Space Force Station

Loading…

Next Passes (next 24 hours)

TLE

FreshSource: CelesTrak SupGP

Epoch: Sep 14, 2026, 22:31 UTC

1 64452C 25130Q   26257.93868056  .00048240  00000+0  14257-2 0  2574
2 64452  53.1563 287.3556 0001134  86.9273  74.6013 15.34356384    10

Track STARLINK-34367 in real time with AllMySat

Download on the App Store